Weather History for KPRB - December, 2012

Change the Weather History Date:

Monday, December 24, 2012

  Actual Average Record
Temperature  
Mean Temperature 50 °F 46 °F  
Max Temperature 58 °F 59 °F 74 °F (1999)
Min Temperature 42 °F 33 °F 13 °F (1990)
Degree Days  
Heating Degree Days 15 19  
Month to date heating degree days 369 443  
Since 1 July heating degree days 793 992  
Cooling Degree Days 0 0  
Month to date cooling degree days 0 0  
Year to date cooling degree days 1147 927  
Moisture  
Dew Point 46 °F    
Average Humidity 78    
Maximum Humidity 93    
Minimum Humidity 62    
Precipitation  
Precipitation 0.01 in 0.08 in 1.68 in (1955)
Month to date precipitation 1.94 1.46  
Year to date precipitation 8.54 12.23  
Since 1 July precipitation 2.67 3.44  
Sea Level Pressure  
Sea Level Pressure 30.10 in    
Wind  
Wind Speed 6 mph (NNW)    
Max Wind Speed 15 mph    
Max Gust Speed 18 mph    
Visibility 10 miles    
Events Rain    
T = Trace of Precipitation, MM = Missing Value Source: NWS Daily Summary

Daily Weather History Graph

Daily Weather History Graph

Search for Another Location

Airport or City:

Trip Planner

Search our weather history database for the weather conditions in past years. The results will help you decide how hot, cold, wet, or windy it might be!

Date:

Astronomy

Dec. 24, 2012 Rise Set
Actual Time 7:10 AM PST 4:54 PM PST
Civil Twilight 6:41 AM PST 5:23 PM PST
Nautical Twilight 6:09 AM PST 5:55 PM PST
Astronomical Twilight 5:38 AM PST 6:26 PM PST
Moon 2:23 PM PST (12/24) 3:55 AM PST (12/24)
Length of Visible Light 10h 41m
Length of Day
9h 44m
Waxing Gibbous, 89% of the Moon is Illuminated
Dec 24
Waxing Gibbous
Dec 28
Full
Jan 4
Last Quarter
Jan 11
New
Jan 18
First Quarter

Hourly Weather History & Observations

Time (PST) Temp. Windchill Dew Point Humidity Pressure Visibility Wind Dir Wind Speed Gust Speed Precip Events Conditions
12:53 AM 55.9 °F - 55.0 °F 97% 29.99 in 10.0 mi West 5.8 mph - 0.01 in Rain Light Rain
1:10 AM 55.4 °F - 55.4 °F 100% 30.00 in 10.0 mi West 8.1 mph - 0.00 in   Overcast
1:38 AM 55.4 °F - 53.6 °F 94% 30.01 in 10.0 mi WNW 4.6 mph - 0.00 in   Overcast
1:53 AM 55.0 °F - 53.1 °F 93% 30.01 in 10.0 mi WNW 5.8 mph - 0.00 in   Mostly Cloudy
2:30 AM 53.6 °F - 51.8 °F 94% 30.03 in 10.0 mi NW 11.5 mph - N/A   Overcast
2:37 AM 53.6 °F - 51.8 °F 94% 30.03 in 10.0 mi NNW 10.4 mph - N/A   Overcast
2:53 AM 53.1 °F - 50.0 °F 89% 30.03 in 10.0 mi NNW 11.5 mph - N/A   Overcast
3:20 AM 51.8 °F - 48.2 °F 88% 30.04 in 10.0 mi NNW 9.2 mph - N/A   Overcast
3:53 AM 50.0 °F - 46.9 °F 89% 30.04 in 10.0 mi NW 8.1 mph - N/A   Mostly Cloudy
4:53 AM 48.0 °F - 46.0 °F 93% 30.05 in 10.0 mi NW 11.5 mph - N/A   Clear
5:53 AM 46.0 °F 43.9 °F 45.0 °F 96% 30.07 in 10.0 mi NW 4.6 mph - N/A   Clear
6:39 AM 46.4 °F 44.3 °F 44.6 °F 93% 30.11 in 10.0 mi NNW 4.6 mph - N/A   Scattered Clouds
6:48 AM 46.4 °F 45.2 °F 44.6 °F 93% 30.11 in 10.0 mi North 3.5 mph - N/A   Mostly Cloudy
6:53 AM 46.0 °F 44.8 °F 45.0 °F 96% 30.11 in 10.0 mi NW 3.5 mph - N/A   Mostly Cloudy
7:30 AM 46.4 °F 42.9 °F 44.6 °F 93% 30.14 in 10.0 mi NNW 6.9 mph - N/A   Overcast
7:53 AM 46.0 °F 42.5 °F 45.0 °F 96% 30.15 in 10.0 mi NW 6.9 mph - N/A   Overcast
8:37 AM 46.4 °F 41.1 °F 46.4 °F 100% 30.15 in 10.0 mi NNW 11.5 mph - N/A   Partly Cloudy
8:53 AM 48.0 °F - 46.0 °F 93% 30.16 in 10.0 mi NNW 8.1 mph - N/A   Clear
9:53 AM 51.1 °F - 45.0 °F 80% 30.18 in 10.0 mi NNW 9.2 mph - N/A   Clear
10:53 AM 53.1 °F - 44.1 °F 71% 30.18 in 10.0 mi NW 10.4 mph - N/A   Partly Cloudy
11:17 AM 51.8 °F - 44.6 °F 76% 30.17 in 10.0 mi NNW 5.8 mph - N/A   Mostly Cloudy
11:53 AM 53.1 °F - 45.0 °F 74% 30.14 in 10.0 mi NNW 3.5 mph - N/A   Scattered Clouds
12:53 PM 55.9 °F - 44.1 °F 64% 30.11 in 10.0 mi NW 5.8 mph - N/A   Clear
1:53 PM 57.0 °F - 45.0 °F 64% 30.08 in 10.0 mi Variable 3.5 mph - N/A   Clear
2:53 PM 57.0 °F - 44.1 °F 62% 30.08 in 10.0 mi West 3.5 mph - N/A   Clear
3:53 PM 57.0 °F - 45.0 °F 64% 30.09 in 10.0 mi NNW 8.1 mph - N/A   Scattered Clouds
4:53 PM 54.0 °F - 45.0 °F 72% 30.10 in 10.0 mi North 3.5 mph - N/A   Scattered Clouds
5:53 PM 51.1 °F - 43.0 °F 74% 30.11 in 10.0 mi Calm Calm - N/A   Scattered Clouds
6:53 PM 48.9 °F - 42.1 °F 77% 30.12 in 10.0 mi Calm Calm - N/A   Mostly Cloudy
7:53 PM 48.0 °F - 42.1 °F 80% 30.13 in 10.0 mi ESE 4.6 mph - N/A   Overcast
8:53 PM 46.9 °F - 41.0 °F 80% 30.14 in 10.0 mi ENE 11.5 mph - N/A   Mostly Cloudy
9:53 PM 45.0 °F 41.8 °F 39.9 °F 82% 30.15 in 10.0 mi NE 5.8 mph - N/A   Clear
10:53 PM 44.1 °F 42.5 °F 41.0 °F 89% 30.15 in 10.0 mi NE 3.5 mph - N/A   Clear
11:53 PM 42.1 °F 38.4 °F 39.0 °F 89% 30.15 in 10.0 mi NNE 5.8 mph - N/A   Clear